カタログに戻る

STARLINK-5218

運用中通信VLEO
NORAD 55636·PAYLOAD·🇺🇸 United States

打ち上げ Feb 17, 2023 から Vandenberg Space Force Base

Loading…

次のパス (今後24時間)

TLE

最新Source: CelesTrak SupGP

元期: Sep 14, 2026, 22:28 UTC

1 55636C 23021J   26257.93659722  .00020014  00000+0  16774-2 0  2578
2 55636  70.0003  87.2309 0002760 271.1187 217.5487 14.98317334    16

AllMySatでSTARLINK-5218をリアルタイム追跡

Download on the App Store